(53626) = 1998 RM15 = 2000 CE97

Discovered at Visnjan on 2000-02-11 by K. Korlevic.

Orbit

Orbit type: Main Belt

Note: WebGL enabled browser required.

epoch2024-03-31.0
epoch JD2460400.5
perihelion date2024-03-20.41178
perihelion JD2460389.91178
argument of perihelion (°)142.35350
ascending node (°)351.40980
inclination (°)2.30689
eccentricity0.1686699
perihelion distance (AU)1.9059305
Tisserand w.r.t. Jupiter3.6
ΔV w.r.t. Earth (km/sec)8.6
semimajor axis (AU)2.2926277
mean anomaly (°)3.00626
mean daily motion (°/day)0.28392490
aphelion distance (AU)2.679
period (years)3.47
P-vector [x]-0.69175472
P-vector [y]0.65238006
P-vector [z]0.30963796
Q-vector [x]-0.72210751
Q-vector [y]-0.62134492
Q-vector [z]-0.30412371
absolute magnitude16.33
phase slope0.15
uncertainty0
referenceMPEC 2024-D136
observations used949
oppositions16
arc length (days)11300
first opposition used1993
last opposition used2024
residual rms (arc-secs)0.68
perturbers coarse indicatorM-v
perturbers precise indicator003Ek
first observation date used1993-03-22.0
last observation date used2024-02-28.0
computer nameMPCLINUX
JD of orbit computation2456937.425416
perihelion JD uncertainty (days)4.8259E-05
argument of perihelion uncertainty (°)6.9721E-05
ascending node uncertainty (°)6.8330E-05
inclination uncertainty (°)4.9542E-06
eccentricity uncertainty 3.2542E-08
perihelion distance uncertainty (AU)7.3509E-08
Minimum Orbit Intersection Distances (in AU)
for orbit epoch: 2460400.5, reference: E2024-GD4
Mercury1.56475
Venus1.18785
Earth0.92118
Mars0.24911
Jupiter2.35565
Saturn6.94014
Uranus16.4601
Neptune27.3421

Observations

979 total observations over interval: 1976 05 30.46900 – 2024 02 28.345407
These data are available for download (format description).

Date (UT) J2000 RA J2000 Dec Magn Location Ref
1976 05 30.46900 14 47 19.25 -19 51 27.1   260 – Siding Spring Observatory-DSS MPS 69589
1976 05 30.51067 14 47 17.32 -19 51 18.2   260 – Siding Spring Observatory-DSS MPS 69589
1993 03 22.23681 10 41 44.42 +08 23 43.6   261 – Palomar Mountain-DSS MPS 69589
1993 03 22.30972 10 41 41.23 +08 23 52.7   261 – Palomar Mountain-DSS MPS 69589
1998 08 26.42513 00 01 15.37 +00 00 34.0 20.3 V 691 – Steward Observatory, Kitt Peak-Spacewatch MPS 16848
1998 08 26.44633 00 01 14.46 +00 00 29.6 20.5 V 691 – Steward Observatory, Kitt Peak-Spacewatch MPS 16848
1998 08 26.46967 00 01 13.46 +00 00 24.7 20.6 V 691 – Steward Observatory, Kitt Peak-Spacewatch MPS 16848
1998 09 15.19460 23 44 12.34 -01 31 24.4 20.0 V 691 – Steward Observatory, Kitt Peak-Spacewatch MPS 2293
1998 09 15.21533 23 44 11.10 -01 31 31.0 19.8 V 691 – Steward Observatory, Kitt Peak-Spacewatch MPS 2293
1998 09 15.23606 23 44 09.83 -01 31 37.3 19.8 V 691 – Steward Observatory, Kitt Peak-Spacewatch MPS 2293
1998 09 20.36934 23 39 06.62 -01 59 15.3 19.9 V 691 – Steward Observatory, Kitt Peak-Spacewatch MPS 2293
1998 09 20.39525 23 39 05.04 -01 59 24.2 20.0 V 691 – Steward Observatory, Kitt Peak-Spacewatch MPS 2293
1998 09 26.29003 23 33 20.52 -02 30 46.6 20.1 V 691 – Steward Observatory, Kitt Peak-Spacewatch MPS 16848
1998 09 26.31113 23 33 19.26 -02 30 53.6 20.1 V 691 – Steward Observatory, Kitt Peak-Spacewatch MPS 16848
1998 09 26.33279 23 33 18.02 -02 31 00.2 20.2 V 691 – Steward Observatory, Kitt Peak-Spacewatch MPS 16848
2000 02 11.03856 12 06 16.24 +00 03 18.7 19.2   120 – Visnjan MPS 10436
2000 02 11.06914 12 06 15.64 +00 03 19.6   120 – Visnjan MPS 10436
2000 02 11.08090 12 06 15.44 +00 03 19.4   120 – Visnjan MPS 10436
2000 02 11.08648 12 06 15.31 +00 03 19.0   120 – Visnjan MPS 10436
2000 02 13.06984 12 05 41.22 +00 03 52.1 19.3   120 – Visnjan MPS 10436
2000 02 13.09413 12 05 40.62 +00 03 52.0   120 – Visnjan MPS 10436
2000 02 14.09414 12 05 20.28 +00 04 27.5 19.4   120 – Visnjan MPS 10436
2000 02 14.10729 12 05 20.03 +00 04 27.7   120 – Visnjan MPS 10436
2000 02 14.95729 12 05 01.60 +00 05 07.1 19.1   120 – Visnjan MPS 10436
2000 02 14.97955 12 05 00.83 +00 05 07.5   120 – Visnjan MPS 10436
2000 02 14.99971 12 05 00.31 +00 05 10.2   120 – Visnjan MPS 10436
2000 02 27.31573 11 57 47.29 +00 29 57.7 18.1 R 703 – Catalina Sky Survey MPS 11104
2000 02 27.33193 11 57 46.51 +00 30 01.0 18.4 R 703 – Catalina Sky Survey MPS 11104
2000 02 27.34799 11 57 45.69 +00 30 03.3 18.5 R 703 – Catalina Sky Survey MPS 11104
2000 02 27.36409 11 57 44.95 +00 30 06.7 18.9 R 703 – Catalina Sky Survey MPS 11104
2000 02 27.96147 11 57 17.49 +00 31 54.1 19.2   120 – Visnjan MPS 11104
2000 02 27.98303 11 57 16.22 +00 31 59.5   120 – Visnjan MPS 11104
2000 02 28.01358 11 57 14.70 +00 32 05.9   120 – Visnjan MPS 11104
2000 03 03.41007 11 53 35.42 +00 47 13.3 19.0   704 – Lincoln Laboratory ETS, New Mexico MPS 11104
2000 03 03.42376 11 53 34.69 +00 47 17.3 19.2   704 – Lincoln Laboratory ETS, New Mexico MPS 11104
2000 03 03.43719 11 53 33.90 +00 47 19.9 19.0   704 – Lincoln Laboratory ETS, New Mexico MPS 11104
2000 03 04.45219 11 52 40.00 +00 51 08.3 17.8 V 691 – Steward Observatory, Kitt Peak-Spacewatch MPS 11104
2000 03 04.47293 11 52 38.83 +00 51 12.8 18.0 V 691 – Steward Observatory, Kitt Peak-Spacewatch MPS 11104
2000 03 04.49366 11 52 37.68 +00 51 17.4 18.4 V 691 – Steward Observatory, Kitt Peak-Spacewatch MPS 11104
2000 03 08.32305 11 49 06.36 +01 06 33.1 15.6   704 – Lincoln Laboratory ETS, New Mexico MPS 11104
2000 03 08.33896 11 49 05.50 +01 06 36.3 16.4   704 – Lincoln Laboratory ETS, New Mexico MPS 11104
2000 03 08.35384 11 49 04.57 +01 06 38.9 16.5   704 – Lincoln Laboratory ETS, New Mexico MPS 11104
2000 03 08.36991 11 49 03.59 +01 06 43.5 16.2   704 – Lincoln Laboratory ETS, New Mexico MPS 11104
2000 03 08.38414 11 49 02.74 +01 06 48.2 15.9   704 – Lincoln Laboratory ETS, New Mexico MPS 11104
2000 03 11.31381 11 46 14.53 +01 19 06.4 18.7   704 – Lincoln Laboratory ETS, New Mexico MPS 11104
2000 03 11.32638 11 46 13.73 +01 19 09.9 18.5   704 – Lincoln Laboratory ETS, New Mexico MPS 11104
2000 03 11.33892 11 46 12.96 +01 19 13.3 18.4   704 – Lincoln Laboratory ETS, New Mexico MPS 11104
2000 03 11.35659 11 46 11.88 +01 19 17.5 18.4   704 – Lincoln Laboratory ETS, New Mexico MPS 11104
2000 03 11.36914 11 46 11.12 +01 19 20.7 18.7   704 – Lincoln Laboratory ETS, New Mexico MPS 11104
2000 04 02.22627 11 26 42.27 +02 44 27.1 18.8 R 699 – Lowell Observatory-LONEOS MPS 12240
2000 04 02.25010 11 26 41.25 +02 44 31.3   699 – Lowell Observatory-LONEOS MPS 12240
2000 04 02.27386 11 26 40.17 +02 44 35.4   699 – Lowell Observatory-LONEOS MPS 12240
2000 04 02.29762 11 26 39.08 +02 44 39.6   699 – Lowell Observatory-LONEOS MPS 12240
2000 04 04.25210 11 25 20.45 +02 49 57.9 18.2   704 – Lincoln Laboratory ETS, New Mexico MPS 12240
2000 04 04.26649 11 25 19.69 +02 50 01.2 18.3   704 – Lincoln Laboratory ETS, New Mexico MPS 12240
2000 04 04.28085 11 25 19.12 +02 50 02.6 18.4   704 – Lincoln Laboratory ETS, New Mexico MPS 12240
2000 04 04.29529 11 25 18.51 +02 50 05.5 18.6   704 – Lincoln Laboratory ETS, New Mexico MPS 12240
2000 04 04.30965 11 25 17.90 +02 50 07.8 18.7   704 – Lincoln Laboratory ETS, New Mexico MPS 12240
2000 04 05.12751 11 24 47.43 +02 52 09.9 18.2   704 – Lincoln Laboratory ETS, New Mexico MPS 12240
2000 04 05.14204 11 24 46.81 +02 52 12.0 18.4   704 – Lincoln Laboratory ETS, New Mexico MPS 12240
2000 04 05.15657 11 24 46.24 +02 52 14.2 17.7   704 – Lincoln Laboratory ETS, New Mexico MPS 12240
2000 04 05.17110 11 24 45.65 +02 52 16.2 18.0   704 – Lincoln Laboratory ETS, New Mexico MPS 12240
2000 04 05.18564 11 24 45.06 +02 52 18.8 17.9   704 – Lincoln Laboratory ETS, New Mexico MPS 12240
2000 04 06.13189 11 24 10.79 +02 54 31.8 18.4   704 – Lincoln Laboratory ETS, New Mexico MPS 12240
2000 04 06.16030 11 24 09.80 +02 54 36.9 18.6   704 – Lincoln Laboratory ETS, New Mexico MPS 12240
2000 04 06.17428 11 24 09.26 +02 54 38.2 17.4   704 – Lincoln Laboratory ETS, New Mexico MPS 12240
2000 04 06.18827 11 24 08.71 +02 54 40.2 17.8   704 – Lincoln Laboratory ETS, New Mexico MPS 12240
2001 08 25.29346 20 22 59.38 -21 38 06.1 19.8 V 608 – Haleakala-AMOS MPS 69589
2001 08 25.30395 20 22 58.92 -21 38 06.2 19.5 V 608 – Haleakala-AMOS MPS 69590
2001 08 25.31444 20 22 58.40 -21 38 07.8 20.1 V 608 – Haleakala-AMOS MPS 69590
2002 10 03.34002 04 45 18.88 +25 06 14.3 20.2   704 – Lincoln Laboratory ETS, New Mexico MPS 67605
2002 10 03.37197 04 45 19.90 +25 06 19.7 20.9   704 – Lincoln Laboratory ETS, New Mexico MPS 67605
2002 10 03.40365 04 45 20.83 +25 06 24.0 20.6   704 – Lincoln Laboratory ETS, New Mexico MPS 67605
2002 10 11.40036 04 48 42.35 +25 26 22.9 19.5   704 – Lincoln Laboratory ETS, New Mexico MPS 67605
2002 10 11.41636 04 48 42.64 +25 26 25.8 20.5   704 – Lincoln Laboratory ETS, New Mexico MPS 67605
2002 10 11.43234 04 48 42.85 +25 26 29.1 20.1   704 – Lincoln Laboratory ETS, New Mexico MPS 67605
2002 10 11.44835 04 48 43.17 +25 26 29.5 20.2   704 – Lincoln Laboratory ETS, New Mexico MPS 67605
2002 10 11.46442 04 48 43.39 +25 26 32.6 20.1   704 – Lincoln Laboratory ETS, New Mexico MPS 67605
2002 11 12.32521 04 39 28.22 +26 07 36.4 19.7   704 – Lincoln Laboratory ETS, New Mexico MPS 65553
2002 11 12.34251 04 39 27.27 +26 07 35.9 19.2   704 – Lincoln Laboratory ETS, New Mexico MPS 65553
2002 11 12.35982 04 39 26.33 +26 07 36.7 19.0   704 – Lincoln Laboratory ETS, New Mexico MPS 65553
2002 11 12.37717 04 39 25.38 +26 07 37.1 19.4   704 – Lincoln Laboratory ETS, New Mexico MPS 65553
2002 11 12.39463 04 39 24.41 +26 07 36.7 19.2   704 – Lincoln Laboratory ETS, New Mexico MPS 65553
2002 11 14.32275 04 37 41.50 +26 07 12.7 18.9   704 – Lincoln Laboratory ETS, New Mexico MPS 65553
2002 11 14.33995 04 37 40.50 +26 07 12.3 19.1   704 – Lincoln Laboratory ETS, New Mexico MPS 65553
2002 11 14.35711 04 37 39.56 +26 07 11.8 19.4   704 – Lincoln Laboratory ETS, New Mexico MPS 65553
2002 11 14.37410 04 37 38.51 +26 07 11.5 19.6   704 – Lincoln Laboratory ETS, New Mexico MPS 65553
2002 11 14.39128 04 37 37.54 +26 07 11.1 19.2   704 – Lincoln Laboratory ETS, New Mexico MPS 65553
